FW7661 Weather Reports


time (UTC)temp
C
wind
direction
speed
KPH
gust
KPH
rain 1hr
cm
rain 24hr
cm
rain mn
cm
humidity
%
barometer
mb
20260505064559 12 0 0.0 4.8 0.00 0.00 0.00 86 1012.5
20260505063049 13 237 1.6 3.2 0.00 0.00 0.00 85 1012.3
20260505061602 13 230 0.0 1.6 0.00 0.00 0.00 84 1012.1
20260505060055 13 287 1.6 3.2 0.00 0.00 0.00 84 1011.9
20260505054555 13 261 1.6 6.4 0.00 0.00 0.00 83 1012.1
20260505053102 13 262 1.6 8.0 0.00 0.00 0.00 82 1011.9
20260505051551 14 284 6.4 11.3 0.00 0.00 0.00 80 1011.7
20260505041551 16 257 1.6 8.0 0.00 0.00 0.00 74 1010.9
20260505040051 17 250 3.2 11.3 0.00 0.00 0.00 73 1010.8
20260505034550 17 240 6.4 16.1 0.00 0.00 0.00 71 1010.6
20260505033048 18 219 6.4 17.7 0.00 0.00 0.00 69 1010.3
20260505031551 18 235 9.7 17.7 0.00 0.00 0.00 67 1010.0
20260505030049 19 239 11.3 20.9 0.00 0.00 0.00 64 1009.9
20260505024551 20 230 9.7 17.7 0.00 0.00 0.00 61 1009.8
20260505023056 21 255 9.7 19.3 0.00 0.00 0.00 59 1009.8
20260505021549 22 230 8.0 16.1 0.00 0.00 0.00 57 1009.8
20260505020056 22 239 11.3 17.7 0.00 0.00 0.00 56 1009.6
20260505014554 23 293 8.0 17.7 0.00 0.00 0.00 55 1009.7
20260505013051 23 293 6.4 14.5 0.00 0.00 0.00 53 1009.8
20260505011554 23 226 6.4 17.7 0.00 0.00 0.00 52 1009.8
20260505010051 24 256 6.4 17.7 0.00 0.00 0.00 51 1009.8
20260505004552 24 297 9.7 17.7 0.00 0.00 0.00 48 1009.8
20260505003050 24 270 8.0 16.1 0.00 0.00 0.00 49 1009.8
20260505001549 24 295 8.0 17.7 0.00 0.00 0.00 48 1009.9
20260505000050 24 272 9.7 14.5 0.00 0.00 0.00 42 1009.9
20260504234548 24 298 9.7 17.7 0.00 0.00 0.00 41 1009.8
20260504233053 25 315 3.2 14.5 0.00 0.00 0.00 45 1009.9
20260504231548 25 283 6.4 17.7 0.00 0.00 0.00 44 1009.9
20260504230049 25 221 6.4 16.1 0.00 0.00 0.00 39 1010.0
20260504224552 25 219 6.4 17.7 0.00 0.00 0.00 41 1010.3
20260504223049 25 233 8.0 12.9 0.00 0.00 0.00 42 1010.3
20260504221554 23 282 6.4 16.1 0.00 0.00 0.00 44 1010.5
20260504220109 23 304 6.4 14.5 0.00 0.00 0.00 45 1010.6
20260504214554 23 238 6.4 16.1 0.00 0.00 0.00 47 1010.7
20260504213059 23 244 8.0 14.5 0.00 0.00 0.00 47 1010.7
20260504211549 23 286 4.8 14.5 0.00 0.00 0.00 50 1010.8
20260504210052 23 280 6.4 12.9 0.00 0.00 0.00 49 1010.8
20260504204549 22 302 8.0 14.5 0.00 0.00 0.00 52 1010.8
20260504203045 23 276 6.4 14.5 0.00 0.00 0.00 50 1010.8
20260504201546 23 262 6.4 12.9 0.00 0.00 0.00 50 1010.7
20260504200055 22 349 6.4 12.9 0.00 0.00 0.00 51 1010.8
20260504194550 23 289 6.4 12.9 0.00 0.00 0.00 51 1010.9
20260504193050 22 223 3.2 12.9 0.00 0.00 0.00 52 1010.8
20260504191556 22 240 8.0 12.9 0.00 0.00 0.00 52 1010.8
20260504190107 22 283 8.0 12.9 0.00 0.00 0.00 56 1010.9
20260504184610 22 276 4.8 11.3 0.00 0.00 0.00 54 1011.0
20260504183107 22 238 6.4 9.7 0.00 0.00 0.00 56 1011.1
20260504181551 22 274 1.6 8.0 0.00 0.00 0.00 54 1011.1
20260504180059 21 264 4.8 8.0 0.00 0.00 0.00 57 1010.9
20260504174600 20 239 4.8 11.3 0.00 0.00 0.00 58 1011.7
20260504173055 21 284 3.2 8.0 0.00 0.00 0.00 58 1011.6
20260504171551 20 231 3.2 8.0 0.00 0.00 0.00 59 1011.5
20260504081549 15 112 0.0 3.2 0.00 0.00 0.00 74 1009.6